STARLINK-32747 (62600 NORAD) Tracking and Keplerian Element Data

This shows tracking and keplerian element data for the satellite.

Feedback or suggestion? Click here.




ElementValue
Catalog62600
NameSTARLINK-32747
Epoch Orbit456
Epoch Day35.16668981
Epoch Year2025
RAAN11.9099
Inclination43
Eccentricity5.68E-05
Argument of Perigee278.8795
Mean Anonmoly203.1348
Mean Motion15.5092955
Decay Rate-0.00991926
L11 62600U 25008P 25035.16668981 -.00991926 00000+0 -18280-1 0 9996
L22 62600 43.0000 11.9099 0000568 278.8795 203.1348 15.50929550 4564



Live tracking and technical data element details for STARLINK-32747 (NORAD 62600). STARLINK-32747 can be tracked NOW for your location showing map with azimuth and elevation plus other details from your city location.







IsCatalogInMostPopularTable: catalog: 62600, numindb: 2
Update: records affected: 1



GetName: 62600 STARLINK-32747

Hit Count: updated at: Sun, 09 Feb 2025 15:40:48 GMT